Location: Dob?e?
(49.9411°N, 15.1496°E)
Time: 11:29:52
(UTC+00:00)

DELFI C3 - Pass Details

Date: 30 October 2021
Orbit: 529 x 543 km, 97.4° (Epoch: 29 November)

Event Time Altitude Azimuth Distance (km) Brightness Sun altitude
Exits shadow 17:42:04 47° 38° (NE) 712 ? -20.1°
Drops below altitude 10° 17:45:14 10° 356° (N) 1,792 ? -20.7°
Sets 17:47:23 0° 351° (N) 2,688 ? -21.0°
